When you browse on this site, cookies collect data to enhance your experience and personalize the content and advertising you see.
Visit our Privacy Policy to learn more. By continuing to use the site, you agree to this use of cookies and data.
  • Em Portugal
  • Lista de países
  • Para 7 dias
  • Temperatura da água
  • Mapas de satélite
  • Mapa do tempo
  • Widgets de tempo
  • user-avatar
    Iniciar Sessão

    Previsão horária em Midlothian

    Hoje, 17 Julho, Quarta-feira

    Tempo Temperatura Precipitação Vento Pressão Humidade
    00:00 +13°C° 0 mm 2 m/s 737 mmHg 94%
    01:00 +13°C° 0 mm 2 m/s 736 mmHg 94%
    02:00 +13°C° 0 mm 2 m/s 736 mmHg 94%
    03:00 +13°C° 0 mm 2 m/s 736 mmHg 94%
    04:00 +13°C° 0 mm 2 m/s 735 mmHg 94%
    05:00 +13°C° 0 mm 3 m/s 735 mmHg 93%
    06:00 +13°C° 0 mm 3 m/s 735 mmHg 93%
    07:00 +14°C° 0 mm 3 m/s 735 mmHg 91%
    08:00 +15°C° 0 mm 4 m/s 735 mmHg 88%
    09:00 +17°C° 0 mm 4 m/s 734 mmHg 86%
    10:00 +16°C° 0 mm 5 m/s 734 mmHg 84%
    11:00 +16°C° 0 mm 5 m/s 734 mmHg 81%
    12:00 +16°C° 0 mm 6 m/s 734 mmHg 79%
    13:00 +16°C° 0.2 mm 5 m/s 733 mmHg 82%
    14:00 +15°C° 0.2 mm 5 m/s 733 mmHg 85%
    15:00 +14°C° 0.2 mm 5 m/s 733 mmHg 88%
    16:00 +14°C° 0.1 mm 5 m/s 732 mmHg 89%
    17:00 +14°C° 0.1 mm 4 m/s 732 mmHg 91%
    18:00 +13°C° 0.1 mm 4 m/s 731 mmHg 92%
    19:00 +13°C° 0.5 mm 4 m/s 731 mmHg 93%
    20:00 +13°C° 0.5 mm 3 m/s 731 mmHg 94%
    21:00 +13°C° 0.5 mm 3 m/s 731 mmHg 95%
    22:00 +13°C° 0.2 mm 3 m/s 731 mmHg 95%
    23:00 +13°C° 0.2 mm 3 m/s 730 mmHg 96%

    Amanhã, 18 Julho, Quinta-feira

    Tempo Temperatura Precipitação Vento Pressão Humidade
    00:00 +13°C° 0.2 mm 3 m/s 730 mmHg 96%
    01:00 +13°C° 0.3 mm 3 m/s 730 mmHg 95%
    02:00 +12°C° 0.3 mm 3 m/s 730 mmHg 94%
    03:00 +12°C° 0.3 mm 4 m/s 730 mmHg 93%
    04:00 +12°C° 0 mm 4 m/s 729 mmHg 92%
    05:00 +11°C° 0 mm 4 m/s 729 mmHg 91%
    06:00 +11°C° 0 mm 4 m/s 729 mmHg 90%
    07:00 +12°C° 0 mm 5 m/s 729 mmHg 85%
    08:00 +13°C° 0 mm 5 m/s 729 mmHg 80%
    09:00 +15°C° 0 mm 6 m/s 730 mmHg 74%
    10:00 +15°C° 0.1 mm 6 m/s 730 mmHg 74%
    11:00 +16°C° 0.1 mm 6 m/s 730 mmHg 73%
    12:00 +16°C° 0.1 mm 6 m/s 730 mmHg 72%
    13:00 +16°C° 0.3 mm 7 m/s 730 mmHg 72%
    14:00 +16°C° 0.3 mm 7 m/s 730 mmHg 72%
    15:00 +16°C° 0.3 mm 7 m/s 730 mmHg 73%
    16:00 +16°C° 0.1 mm 7 m/s 730 mmHg 73%
    17:00 +15°C° 0.1 mm 6 m/s 730 mmHg 74%
    18:00 +15°C° 0.1 mm 6 m/s 730 mmHg 75%
    19:00 +14°C° 0 mm 5 m/s 730 mmHg 79%
    20:00 +12°C° 0 mm 5 m/s 731 mmHg 82%
    21:00 +10°C° 0 mm 5 m/s 731 mmHg 86%
    22:00 +9°C° 0 mm 5 m/s 731 mmHg 88%
    23:00 +10°C° 0 mm 4 m/s 731 mmHg 90%

    Depois de amanhã, 19 Julho, Sexta-feira

    Tempo Temperatura Precipitação Vento Pressão Humidade
    00:00 +8°C° 0 mm 4 m/s 731 mmHg 92%
    01:00 +8°C° 0 mm 4 m/s 731 mmHg 92%
    02:00 +8°C° 0 mm 4 m/s 732 mmHg 93%
    03:00 +8°C° 0 mm 4 m/s 732 mmHg 93%
    04:00 +10°C° 0 mm 3 m/s 732 mmHg 92%
    05:00 +10°C° 0 mm 3 m/s 732 mmHg 90%
    06:00 +11°C° 0 mm 3 m/s 732 mmHg 88%
    07:00 +13°C° 0 mm 3 m/s 732 mmHg 83%
    08:00 +14°C° 0 mm 3 m/s 732 mmHg 77%
    09:00 +16°C° 0 mm 3 m/s 732 mmHg 71%
    10:00 +17°C° 0.2 mm 3 m/s 732 mmHg 70%
    11:00 +17°C° 0.2 mm 3 m/s 732 mmHg 69%
    12:00 +18°C° 0.2 mm 3 m/s 733 mmHg 69%
    13:00 +18°C° 0.2 mm 3 m/s 732 mmHg 68%
    14:00 +18°C° 0.2 mm 3 m/s 732 mmHg 68%
    15:00 +18°C° 0.2 mm 3 m/s 732 mmHg 67%
    16:00 +18°C° 0.1 mm 3 m/s 732 mmHg 70%
    17:00 +18°C° 0.1 mm 3 m/s 732 mmHg 73%
    18:00 +17°C° 0.1 mm 2 m/s 731 mmHg 76%
    19:00 +16°C° 0.7 mm 2 m/s 731 mmHg 82%
    20:00 +15°C° 0.7 mm 1 m/s 731 mmHg 89%
    21:00 +12°C° 0.7 mm 0 m/s 731 mmHg 95%
    22:00 +13°C° 0.5 mm 1 m/s 730 mmHg 96%
    23:00 +13°C° 0.5 mm 1 m/s 730 mmHg 97%

    20 Julho, Sábado

    Tempo Temperatura Precipitação Vento Pressão Humidade
    00:00 +13°C° 0.5 mm 2 m/s 730 mmHg 97%
    01:00 +13°C° 0.4 mm 2 m/s 729 mmHg 97%
    02:00 +13°C° 0.4 mm 1 m/s 729 mmHg 97%
    03:00 +13°C° 0.4 mm 1 m/s 729 mmHg 97%
    04:00 +13°C° 0.1 mm 1 m/s 728 mmHg 97%
    05:00 +14°C° 0.1 mm 1 m/s 728 mmHg 96%
    06:00 +14°C° 0.1 mm 1 m/s 728 mmHg 96%
    07:00 +15°C° 0.5 mm 1 m/s 728 mmHg 95%
    08:00 +15°C° 0.5 mm 1 m/s 728 mmHg 94%
    09:00 +16°C° 0.5 mm 1 m/s 728 mmHg 93%
    10:00 +16°C° 1.1 mm 1 m/s 728 mmHg 92%
    11:00 +16°C° 1.1 mm 1 m/s 728 mmHg 91%
    12:00 +17°C° 1.1 mm 2 m/s 728 mmHg 90%
    13:00 +17°C° 0.9 mm 2 m/s 728 mmHg 89%
    14:00 +18°C° 0.9 mm 2 m/s 728 mmHg 87%
    15:00 +18°C° 0.9 mm 3 m/s 729 mmHg 86%
    16:00 +18°C° 0.9 mm 3 m/s 729 mmHg 87%
    17:00 +18°C° 0.9 mm 4 m/s 729 mmHg 88%
    18:00 +17°C° 0.9 mm 5 m/s 730 mmHg 89%
    19:00 +15°C° 0.2 mm 5 m/s 730 mmHg 90%
    20:00 +14°C° 0.2 mm 5 m/s 731 mmHg 91%
    21:00 +12°C° 0.2 mm 5 m/s 731 mmHg 92%
    22:00 +12°C° 0 mm 5 m/s 732 mmHg 92%
    23:00 +10°C° 0 mm 5 m/s 732 mmHg 92%

    21 Julho, Domingo

    Tempo Temperatura Precipitação Vento Pressão Humidade
    00:00 +10°C° 0 mm 5 m/s 733 mmHg 91%
    01:00 +10°C° 0 mm 5 m/s 733 mmHg 91%
    02:00 +9°C° 0 mm 5 m/s 734 mmHg 91%
    03:00 +9°C° 0 mm 5 m/s 734 mmHg 91%
    04:00 +10°C° 0 mm 4 m/s 735 mmHg 89%
    05:00 +11°C° 0 mm 4 m/s 735 mmHg 86%
    06:00 +11°C° 0 mm 4 m/s 736 mmHg 84%
    07:00 +12°C° 0 mm 4 m/s 737 mmHg 81%
    08:00 +13°C° 0 mm 4 m/s 737 mmHg 77%
    09:00 +15°C° 0 mm 4 m/s 738 mmHg 74%
    10:00 +15°C° 0 mm 4 m/s 738 mmHg 71%
    11:00 +17°C° 0 mm 4 m/s 739 mmHg 68%
    12:00 +18°C° 0 mm 3 m/s 739 mmHg 66%
    13:00 +19°C° 0 mm 4 m/s 739 mmHg 66%
    14:00 +19°C° 0 mm 4 m/s 739 mmHg 67%
    15:00 +19°C° 0 mm 4 m/s 739 mmHg 68%
    16:00 +19°C° 0 mm 4 m/s 739 mmHg 70%
    17:00 +18°C° 0 mm 4 m/s 739 mmHg 73%
    18:00 +17°C° 0 mm 4 m/s 739 mmHg 76%
    19:00 +15°C° 0 mm 4 m/s 739 mmHg 79%
    20:00 +14°C° 0 mm 4 m/s 739 mmHg 82%
    21:00 +12°C° 0 mm 3 m/s 739 mmHg 86%
    22:00 +12°C° 0 mm 3 m/s 739 mmHg 87%
    23:00 +12°C° 0 mm 3 m/s 739 mmHg 87%

    22 Julho, Segunda-feira

    Tempo Temperatura Precipitação Vento Pressão Humidade
    00:00 +12°C° 0 mm 3 m/s 739 mmHg 88%
    01:00 +11°C° 0 mm 3 m/s 739 mmHg 90%
    02:00 +11°C° 0 mm 3 m/s 739 mmHg 91%
    03:00 +11°C° 0 mm 3 m/s 738 mmHg 93%
    04:00 +12°C° 0 mm 3 m/s 738 mmHg 91%
    05:00 +12°C° 0 mm 3 m/s 738 mmHg 90%
    06:00 +13°C° 0 mm 3 m/s 739 mmHg 89%
    07:00 +14°C° 0 mm 3 m/s 739 mmHg 84%
    08:00 +17°C° 0 mm 4 m/s 739 mmHg 79%
    09:00 +17°C° 0 mm 5 m/s 739 mmHg 74%
    10:00 +19°C° 0 mm 5 m/s 739 mmHg 72%
    11:00 +20°C° 0 mm 5 m/s 739 mmHg 71%
    12:00 +20°C° 0 mm 5 m/s 739 mmHg 69%
    13:00 +20°C° 0 mm 5 m/s 739 mmHg 69%
    14:00 +20°C° 0 mm 6 m/s 738 mmHg 68%
    15:00 +20°C° 0 mm 6 m/s 738 mmHg 68%
    16:00 +20°C° 0 mm 6 m/s 738 mmHg 71%
    17:00 +19°C° 0 mm 5 m/s 738 mmHg 74%
    18:00 +19°C° 0 mm 5 m/s 738 mmHg 77%
    19:00 +18°C° 0 mm 4 m/s 738 mmHg 80%
    20:00 +17°C° 0 mm 4 m/s 738 mmHg 83%
    21:00 +16°C° 0 mm 3 m/s 738 mmHg 87%
    22:00 +16°C° 0 mm 3 m/s 738 mmHg 88%
    23:00 +16°C° 0 mm 3 m/s 738 mmHg 89%
    Mostrar mais